Regional Weather Roundup
Issued by NWS

Home | Current Version | Previous Version | Text Only | Print | Product List | Glossary On
Versions: 1 2 3 4 5 6 7 8 9 10 11 12 13 14 15 16 17 18 19 20 21 22 23 24 25 26 27 28 29 30 31 32 33 34 35 36 37 38 39 40 41 42 43 44 45 46 47 48 49 50
000
ASUS46 KLOX 032213
RWRCA

SOUTHERN CALIFORNIA WEATHER ROUNDUP
NATIONAL WEATHER SERVICE OXNARD CALIFORNIA
300 PM PDT FRI JUL 03 2015

NOTE: "FAIR" INDICATES FEW OR NO CLOUDS BELOW 12,000 FEET WITH NO
SIGNIFICANT WEATHER AND/OR OBSTRUCTIONS TO VISIBILITY.

  -  STATIONS PRECEEDED BY AN ASTERISK (*) ARE NOT NWS OR FAA
     STATIONS AND ARE NOT SUBJECT TO NWS AND FAA QUALITY CONTROL.

CAZ041-042-087-032300-
LA AND ORANGE COUNTY COASTAL AREAS


CITY           SKY/WX    TMP DP  RH WIND       PRES   REMARKS
L.A. DOWNTOWN  SUNNY     75  61  61 CALM      29.89F
L.A. AIRPORT   PTSUNNY   68  61  78 W17       29.91F
LONG BEACH     SUNNY     81  62  52 SW6       29.89F

CITY           SKY/WX    TMP DP  RH WIND       PRES   REMARKS
AVALON           N/A     68 N/A N/A NE5         N/A
FULLERTON      SUNNY     82  62  50 S9        29.87F
*GETTY CENTER    N/A     75  61  60 S9          N/A
HAWTHORNE      SUNNY     74  60  61 W15       29.90F
*LOS ALAMITOS  FAIR      77  63  62 SW13      29.88F
*REDONDO BEACH   N/A     74  62  67 W10       29.90F
SANTA ANA      MOSUNNY   75  61  61 W9        29.89F
STA MONICA APT PTSUNNY   64  61  90 SW12      29.91F
TORRANCE       MOSUNNY   75  63  64 NW14      29.89F
*UCLA            N/A     70  59  68 S7        29.87F

$$

CAZ547-548-048-032300-
LA COUNTY VALLEYS AND INLAND EMPIRE


CITY           SKY/WX    TMP DP  RH WIND       PRES   REMARKS
BURBANK        SUNNY     87  59  38 S12       29.88F
VAN NUYS       SUNNY     90  57  32 SE9       29.87F

CITY           SKY/WX    TMP DP  RH WIND       PRES   REMARKS
CORONA AIRPORT CLOUDY    89  56  32 W13       29.87F
*CHATSWORTH      N/A     90  60  36 W6        29.84S
CHINO          MOSUNNY   92  56  29 W13       29.88F HX  90
MARCH AFB      MOSUNNY   89  55  31 NW12      29.89F
*NORTHRIDGE      N/A     90  54  29 SE3G10      N/A
ONTARIO        PTSUNNY   90  58  33 W10       29.88F
*PASADENA        N/A     86  66  51 E1          N/A
POMONA         SUNNY     88  59  37 W12       29.92F
RIVERSIDE      PTSUNNY   91  55  29 W14G20    29.87F
SAN BERNARDINO PTSUNNY   93  50  22 SW14      29.88F HX  90
*WHITEMAN AP   MOSUNNY   88  57  35 S7        29.92F
*WOODLAND HILL   N/A     93  57  29 E3          N/A  HX  92

$$

CAZ054-055-032300-
LA AND SAN BERNARDINO COUNTY MOUNTAINS


CITY           SKY/WX    TMP DP  RH WIND       PRES   REMARKS
*BIG BEAR AIRP PTCLDY    79  41  25 E7        30.24F
SANDBERG       SUNNY     89  46  22 S15G26    30.09F

$$

CAZ028-029-059-060-099-032300-
ANTELOPE VALLEY AND SURROUNDING AREAS


CITY           SKY/WX    TMP DP  RH WIND       PRES   REMARKS
LANCASTER      MOSUNNY  101  36  10 W16G22    29.91F HX  95
PALMDALE       MOSUNNY   96  37  12 VRB3      29.93F HX  91

CITY           SKY/WX    TMP DP  RH WIND       PRES   REMARKS
29 PALMS       CLOUDY   101  45  15 NE5       29.91F HX  97
BARSTOW/DAGGET PTSUNNY  103  30   8 N6        29.84F HX  96
BISHOP         MOSUNNY   98  43  15 S12       29.95F HX  94
CHINA LAKE     PTSUNNY  102  29   7 S12       29.87F HX  95
EDWARDS AFB    MOSUNNY  100  26   7 SW13      29.88F HX  93
MOJAVE         FAIR      99  25   7 SE8G17    29.93F HX  92
NEEDLES        PTSUNNY  108  51  15 SW13G20   29.75F HX 105
VICTORVILLE    MOSUNNY  100  30   8 CALM      29.92F HX  94

$$

CAZ039-040-032300-
VENTURA AND SANTA BARBARA COUNTY COAST


CITY           SKY/WX    TMP DP  RH WIND       PRES   REMARKS
CAMARILLO      SUNNY     72  59  63 SW9       29.91F
NWS OXNARD       N/A     72  59  63 CALM      29.91F
OXNARD AIRPORT SUNNY     70  59  68 W13       29.92F
*POINT MUGU    MOSUNNY   73  60  63 W10       29.92F
SBA APT/GOLETA SUNNY     71  59  65 SW9       29.92F
*SANTA BARBARA   N/A     76  60  56 NE3       29.99S
*VENTURA         N/A     75  59  56 SW10      29.53S

$$

CAZ044-045-032300-
VENTURA COUNTY VALLEYS


CITY           SKY/WX    TMP DP  RH WIND       PRES   REMARKS
*SIMI VALLEY     N/A     82  60  47 W2        29.84F
*OJAI            N/A     90  61  37 W3        29.81F
*FILLMORE        N/A     85  60  41 SW1       29.79F

$$

CAZ053-032300-
VENTURA COUNTY MOUNTAINS


CITY           SKY/WX    TMP DP  RH WIND       PRES   REMARKS
*ROSE VALLEY     N/A    N/A -99   0 MISG        N/A

$$

CAZ034-035-036-032300-
CENTRAL COAST AND SANTA YNEZ VALLEY


CITY           SKY/WX    TMP DP  RH WIND       PRES   REMARKS
SAN LUIS OBISP SUNNY     77  55  46 NW13      29.92S
SANTA MARIA    SUNNY     75  59  57 NW14      29.94F

CITY           SKY/WX    TMP DP  RH WIND       PRES   REMARKS
*CAL POLY SLO    N/A     77  59  53 NW9         N/A
*LOMPOC        SUNNY     72  57  60 W16       29.95F
*PISMO BEACH     N/A     62  59  90 W12       29.96S
*SANTA YNEZ    FAIR      86  50  28 W15G21    29.90S

$$

CAZ037-038-051-032300-
SAN LUIS OBISPO COUNTY INTERIOR AND CUYAMA VALLEY


CITY           SKY/WX    TMP DP  RH WIND       PRES   REMARKS
*CUYAMA          N/A     94  52  23 NE12      29.76S HX  91
PASO ROBLES    SUNNY     94  54  25 SW14      29.86F HX  92

$$

CAZ032-033-061-032300-
SOUTHERN DESERTS


CITY           SKY/WX    TMP DP  RH WIND       PRES   REMARKS
BLYTHE         CLOUDY   103  56  21 CALM      29.73F HX 102
IMPERIAL       PTSUNNY  106  52  16 NE7       29.69F HX 103
PALM SPRINGS   PTSUNNY  108  54  16 CALM      29.75F HX 106
THERMAL        PTSUNNY  108  56  18 CALM      29.67F HX 107

$$

ELSEWHERE ACROSS THE WESTERN UNITED STATES AND MEXICO


CITY           SKY/WX    TMP DP  RH WIND       PRES   REMARKS
DENVER, CO     MOSUNNY   84  56  38 E7        30.10F
GRAND CANYON,  CLOUDY    79  52  38 S3        30.20F
HONOLULU, HI   PTSUNNY   84  72  65 SE13      29.91F
KAHULUI, MAUI  MOSUNNY   90  70  51 NE13G24   29.90S HX  95
LAKE TAHOE, CA MOSUNNY   80  55  42 VRB5      30.18F
LAS VEGAS, NV  PTSUNNY  107  38   9 SW5       29.76F HX 101
MAMMOTH LAKES, FAIR      82  41  23 SE8       30.23F
MEXICO CITY, M LGT RAIN  66  52  59 SW7       30.21S
PHOENIX, AZ    CLOUDY    95  61  32 W6        29.78F HX  95
PORTLAND, OR   MOSUNNY   92  58  31 NW9       29.87F HX  91
RENO, NV       PTSUNNY   77  61  57 W24G33    30.02S
SALT LAKE CITY PTSUNNY   98  43  15 SW8       29.95F HX  94
SAN DIEGO, CA  MOSUNNY   74  61  63 NW14      29.90F
SAN FRANCISCO, MOSUNNY   70  57  63 NW23      29.90F
SAN JOSE, CA   MOSUNNY   80  61  52 NW12      29.88F
SEATTLE, WA    SUNNY     89  52  28 W8        29.92F
TIJUANA, MEX   MOSUNNY   75  59  57 W14       29.91F

$$

STATION/POSITION TIME  TEMP    WIND        PRES    VSBY  WAVE
                       AIR SEA DIR/SP/G                  HT/PER
                 (UTC) (F)     (DEG/KT/KT) (MB)    (MI)  (FT/S)
POINT ARGUELLO B NOT AVBL
WEST SANTA BARBA 2150   60 61  300/  8/ 10 1013.4F         3/13
POINT CONCEPTION NOT AVBL
EAST SANTA BARBA 2200   60 64  270/ 14/ 17 1014.0F
SANTA MONICA BAY 2150   65 69  320/ 10/ 12 1013.3S         2/13



USA.gov is the U.S. government's official web portal to all federal, state and local government web resources and services.